Weather in Vesele

Ukraine / Dnipropetrovsk Region     47°52′48″N   34°21′17″E
temp.,
°C
wind,
m/s
gust,
m/s
humid.,
%
clouds,
%
prec.,
mm/h
press.,
hPa
HPBL,
m
14 may, fri
fri1400:00+13ese357654 0.0 101177
03:00+12e348631 0.0 101058
06:00+12se349426 0.0 100980
09:00+18s5675100 0.0 1008469
12:00+21ssw6749100 0.0 1009981
15:00+22s6744100 0.0 10091304
18:00+20s5958100 0.0 1009458
21:00+15ssw48750 0.0 1010134
15 may, sat
sat1500:00+13wsw378063 0.0 1011107
03:00+12ssw377987 0.0 1012102
06:00+12ssw358185 0.0 101298
09:00+18ssw576274 0.0 1013490
12:00+22ssw684976 0.0 10131710
15:00+24sw564235 0.0 10122368
18:00+21s335993 0.0 101260
21:00+19ssw1159100 0.0 101312
16 may, sun
sun1600:00+15nw22651 0.0 101312
03:00+14n22700 0.0 101312
06:00+14nne337376 0.0 101241
09:00+21ene345698 0.0 1013487
12:00+24ene4544100 0.0 10111681
15:00+26ene553837 0.0 10101896
18:00+25ne3651100 0.0 1008352
21:00+19nne596999 0.1 1007136
17 may, mon
mon1700:00+18ne498689 1.0 1005225
03:00+17nne1287100 1.8 100433
06:00+16ne4693100 0.3 1004135
09:00+19nne2380100 0.3 1004411
12:00+23wsw1263100 0.0 1004937
15:00+24ssw4460100 1.4 10041151
18:00+22wsw5671100 2.8 10051003
21:00+17w229291 3.8 100631
18 may, tue
tue1800:00+16w349294 0.6 100861
03:00+15ssw339237 0.6 100847
06:00+14sw259456 0.1 1009164
09:00+19ssw56763 0.1 1009641
12:00+22ssw565952 0.5 10091378
15:00+24wsw674310 1.4 10092442
18:00+21ssw6126099 0.0 1009472
21:00+17ssw51284100 1.6 1010351